Year,Month,Day,Hour,Minute,Value (Times are PST for temperature in C)
2018,08,09,00,00,16.90
2018,08,09,00,01,16.90
2018,08,09,00,02,17.00
2018,08,09,00,03,17.00
2018,08,09,00,04,17.00
2018,08,09,00,05,17.10
2018,08,09,00,06,17.10
2018,08,09,00,07,17.20
2018,08,09,00,08,17.30
2018,08,09,00,09,17.30
2018,08,09,00,10,17.30
2018,08,09,00,11,17.40
2018,08,09,00,12,17.50
2018,08,09,00,13,17.50
2018,08,09,00,14,17.50
2018,08,09,00,15,17.50
2018,08,09,00,16,17.50
2018,08,09,00,17,17.50
2018,08,09,00,18,17.50
2018,08,09,00,19,17.50
2018,08,09,00,20,17.40
2018,08,09,00,21,17.40
2018,08,09,00,22,17.30
2018,08,09,00,23,17.30
2018,08,09,00,24,17.20
2018,08,09,00,25,17.10
2018,08,09,00,26,17.10
2018,08,09,00,27,17.10
2018,08,09,00,28,17.10
2018,08,09,00,29,17.20
2018,08,09,00,30,17.30
2018,08,09,00,31,17.40
2018,08,09,00,32,17.50
2018,08,09,00,33,17.60
2018,08,09,00,34,17.70
2018,08,09,00,35,17.70
2018,08,09,00,36,17.80
2018,08,09,00,37,17.80
2018,08,09,00,38,17.90
2018,08,09,00,39,17.90
2018,08,09,00,40,17.90
2018,08,09,00,41,17.90
2018,08,09,00,42,17.90
2018,08,09,00,43,17.90
2018,08,09,00,44,17.90
2018,08,09,00,45,18.00
2018,08,09,00,46,18.10
2018,08,09,00,47,18.20
2018,08,09,00,48,18.20
2018,08,09,00,49,18.20
2018,08,09,00,50,18.30
2018,08,09,00,51,18.30
2018,08,09,00,52,18.40
2018,08,09,00,53,18.40
2018,08,09,00,54,18.50
2018,08,09,00,55,18.60
2018,08,09,00,56,18.60
2018,08,09,00,57,18.70
2018,08,09,00,58,18.70
2018,08,09,00,59,18.80
2018,08,09,01,00,18.80
2018,08,09,01,01,18.90
2018,08,09,01,02,18.90
2018,08,09,01,03,18.90
2018,08,09,01,04,18.90
2018,08,09,01,05,18.90
2018,08,09,01,06,18.90
2018,08,09,01,07,18.90
2018,08,09,01,08,18.90
2018,08,09,01,09,18.80
2018,08,09,01,10,18.70
2018,08,09,01,11,18.70
2018,08,09,01,12,18.60
2018,08,09,01,13,18.60
2018,08,09,01,14,18.60
2018,08,09,01,15,18.70
2018,08,09,01,16,18.80
2018,08,09,01,17,18.90
2018,08,09,01,18,18.90
2018,08,09,01,19,18.90
2018,08,09,01,20,18.80
2018,08,09,01,21,18.80
2018,08,09,01,22,18.80
2018,08,09,01,23,18.70
2018,08,09,01,24,18.70
2018,08,09,01,25,18.70
2018,08,09,01,26,18.60
2018,08,09,01,27,18.50
2018,08,09,01,28,18.40
2018,08,09,01,29,18.30
2018,08,09,01,30,18.20
2018,08,09,01,31,18.20
2018,08,09,01,32,18.20
2018,08,09,01,33,18.20
2018,08,09,01,34,18.30
2018,08,09,01,35,18.50
2018,08,09,01,36,18.60
2018,08,09,01,37,18.70
2018,08,09,01,38,18.90
2018,08,09,01,39,19.00
2018,08,09,01,40,19.10
2018,08,09,01,41,19.10
2018,08,09,01,42,19.30
2018,08,09,01,43,19.40
2018,08,09,01,44,19.40
2018,08,09,01,45,19.40
2018,08,09,01,46,19.40
2018,08,09,01,47,19.30
2018,08,09,01,48,19.20
2018,08,09,01,49,19.20
2018,08,09,01,50,19.20
2018,08,09,01,51,19.20
2018,08,09,01,52,19.20
2018,08,09,01,53,19.10
2018,08,09,01,54,18.90
2018,08,09,01,55,18.70
2018,08,09,01,56,18.60
2018,08,09,01,57,18.60
2018,08,09,01,58,18.60
2018,08,09,01,59,18.60
2018,08,09,02,00,18.60
2018,08,09,02,01,18.60
2018,08,09,02,02,18.60
2018,08,09,02,03,18.50
2018,08,09,02,04,18.40
2018,08,09,02,05,18.20
2018,08,09,02,06,18.00
2018,08,09,02,07,17.90
2018,08,09,02,08,17.80
2018,08,09,02,09,17.70
2018,08,09,02,10,17.60
2018,08,09,02,11,17.60
2018,08,09,02,12,17.50
2018,08,09,02,13,17.40
2018,08,09,02,14,17.30
2018,08,09,02,15,17.10
2018,08,09,02,16,17.00
2018,08,09,02,17,16.90
2018,08,09,02,18,16.80
2018,08,09,02,19,16.70
2018,08,09,02,20,16.50
2018,08,09,02,21,16.40
2018,08,09,02,22,16.30
2018,08,09,02,23,16.10
2018,08,09,02,24,15.90
2018,08,09,02,25,15.80
2018,08,09,02,26,15.70
2018,08,09,02,27,15.60
2018,08,09,02,28,15.50
2018,08,09,02,29,15.40
2018,08,09,02,30,15.30
2018,08,09,02,31,15.20
2018,08,09,02,32,15.10
2018,08,09,02,33,15.10
2018,08,09,02,34,15.00
2018,08,09,02,35,14.90
2018,08,09,02,36,14.80
2018,08,09,02,37,14.80
2018,08,09,02,38,14.80
2018,08,09,02,39,14.80
2018,08,09,02,40,14.80
2018,08,09,02,41,14.80
2018,08,09,02,42,14.80
2018,08,09,02,43,14.70
2018,08,09,02,44,14.70
2018,08,09,02,45,14.70
2018,08,09,02,46,14.70
2018,08,09,02,47,14.70
2018,08,09,02,48,14.70
2018,08,09,02,49,14.80
2018,08,09,02,50,14.80
2018,08,09,02,51,14.80
2018,08,09,02,52,14.90
2018,08,09,02,53,14.90
2018,08,09,02,54,15.00
2018,08,09,02,55,15.10
2018,08,09,02,56,15.10
2018,08,09,02,57,15.20
2018,08,09,02,58,15.30
2018,08,09,02,59,15.30
2018,08,09,03,00,15.30
2018,08,09,03,01,15.30
2018,08,09,03,02,15.30
2018,08,09,03,03,15.30
2018,08,09,03,04,15.30
2018,08,09,03,05,15.20
2018,08,09,03,06,15.20
2018,08,09,03,07,15.20
2018,08,09,03,08,15.10
2018,08,09,03,09,15.10
2018,08,09,03,10,15.10
2018,08,09,03,11,15.00
2018,08,09,03,12,15.00
2018,08,09,03,13,14.90
2018,08,09,03,14,14.90
2018,08,09,03,15,14.80
2018,08,09,03,16,14.80
2018,08,09,03,17,14.80
2018,08,09,03,18,14.80
2018,08,09,03,19,14.70
2018,08,09,03,20,14.70
2018,08,09,03,21,14.60
2018,08,09,03,22,14.50
2018,08,09,03,23,14.50
2018,08,09,03,24,14.50
2018,08,09,03,25,14.40
2018,08,09,03,26,14.40
2018,08,09,03,27,14.40
2018,08,09,03,28,14.40
2018,08,09,03,29,14.30
2018,08,09,03,30,14.30
2018,08,09,03,31,14.40
2018,08,09,03,32,14.40
2018,08,09,03,33,14.40
2018,08,09,03,34,14.40
2018,08,09,03,35,14.40
2018,08,09,03,36,14.40
2018,08,09,03,37,14.40
2018,08,09,03,38,14.40
2018,08,09,03,39,14.40
2018,08,09,03,40,14.40
2018,08,09,03,41,14.40
2018,08,09,03,42,14.40
2018,08,09,03,43,14.40
2018,08,09,03,44,14.40
2018,08,09,03,45,14.40
2018,08,09,03,46,14.40
2018,08,09,03,47,14.40
2018,08,09,03,48,14.50
2018,08,09,03,49,14.50
2018,08,09,03,50,14.50
2018,08,09,03,51,14.50
2018,08,09,03,52,14.60
2018,08,09,03,53,14.60
2018,08,09,03,54,14.60
2018,08,09,03,55,14.60
2018,08,09,03,56,14.60
2018,08,09,03,57,14.70
2018,08,09,03,58,14.70
2018,08,09,03,59,14.80
2018,08,09,04,00,14.80
2018,08,09,04,01,14.90
2018,08,09,04,02,14.90
2018,08,09,04,03,14.90
2018,08,09,04,04,14.90
2018,08,09,04,05,14.90
2018,08,09,04,06,14.80
2018,08,09,04,07,14.80
2018,08,09,04,08,14.80
2018,08,09,04,09,14.70
2018,08,09,04,10,14.60
2018,08,09,04,11,14.50
2018,08,09,04,12,14.50
2018,08,09,04,13,14.40
2018,08,09,04,14,14.30
2018,08,09,04,15,14.20
2018,08,09,04,16,14.10
2018,08,09,04,17,14.00
2018,08,09,04,18,13.90
2018,08,09,04,19,13.80
2018,08,09,04,20,13.70
2018,08,09,04,21,13.70
2018,08,09,04,22,13.60
2018,08,09,04,23,13.60
2018,08,09,04,24,13.50
2018,08,09,04,25,13.50
2018,08,09,04,26,13.50
2018,08,09,04,27,13.50
2018,08,09,04,28,13.40
2018,08,09,04,29,13.40
2018,08,09,04,30,13.30
2018,08,09,04,31,13.30
2018,08,09,04,32,13.30
2018,08,09,04,33,13.30
2018,08,09,04,34,13.30
2018,08,09,04,35,13.20
2018,08,09,04,36,13.20
2018,08,09,04,37,13.20
2018,08,09,04,38,13.20
2018,08,09,04,39,13.10
2018,08,09,04,40,13.10
2018,08,09,04,41,13.10
2018,08,09,04,42,13.00
2018,08,09,04,43,13.00
2018,08,09,04,44,13.00
2018,08,09,04,45,13.00
2018,08,09,04,46,12.90
2018,08,09,04,47,12.90
2018,08,09,04,48,12.90
2018,08,09,04,49,12.90
2018,08,09,04,50,12.80
2018,08,09,04,51,12.80
2018,08,09,04,52,12.80
2018,08,09,04,53,12.80
2018,08,09,04,54,12.80
2018,08,09,04,55,12.80
2018,08,09,04,56,12.80
2018,08,09,04,57,12.80
2018,08,09,04,58,12.80
2018,08,09,04,59,12.80
2018,08,09,05,00,12.80
2018,08,09,05,01,12.80
2018,08,09,05,02,12.80
2018,08,09,05,03,12.80
2018,08,09,05,04,12.80
2018,08,09,05,05,12.80
2018,08,09,05,06,12.80
2018,08,09,05,07,12.80
2018,08,09,05,08,12.80
2018,08,09,05,09,12.80
2018,08,09,05,10,12.80
2018,08,09,05,11,12.80
2018,08,09,05,12,12.80
2018,08,09,05,13,12.80
2018,08,09,05,14,12.80
2018,08,09,05,15,12.80
2018,08,09,05,16,12.80
2018,08,09,05,17,12.80
2018,08,09,05,18,12.80
2018,08,09,05,19,12.80
2018,08,09,05,20,12.80
2018,08,09,05,21,12.80
2018,08,09,05,22,12.80
2018,08,09,05,23,12.80
2018,08,09,05,24,12.80
2018,08,09,05,25,12.80
2018,08,09,05,26,12.80
2018,08,09,05,27,12.80
2018,08,09,05,28,12.80
2018,08,09,05,29,12.80
2018,08,09,05,30,12.80
2018,08,09,05,31,12.80
2018,08,09,05,32,12.80
2018,08,09,05,33,12.80
2018,08,09,05,34,12.80
2018,08,09,05,35,12.80
2018,08,09,05,36,12.80
2018,08,09,05,37,12.80
2018,08,09,05,38,12.80
2018,08,09,05,39,12.80
2018,08,09,05,40,12.80
2018,08,09,05,41,12.80
2018,08,09,05,42,12.80
2018,08,09,05,43,12.80
2018,08,09,05,44,12.70
2018,08,09,05,45,12.70
2018,08,09,05,46,12.70
2018,08,09,05,47,12.70
2018,08,09,05,48,12.70
2018,08,09,05,49,12.70
2018,08,09,05,50,12.70
2018,08,09,05,51,12.70
2018,08,09,05,52,12.70
2018,08,09,05,53,12.70
2018,08,09,05,54,12.70
2018,08,09,05,55,12.70
2018,08,09,05,56,12.60
2018,08,09,05,57,12.60
2018,08,09,05,58,12.60
2018,08,09,05,59,12.60
2018,08,09,06,00,12.60
2018,08,09,06,01,12.60
2018,08,09,06,02,12.60
2018,08,09,06,03,12.60
2018,08,09,06,04,12.60
2018,08,09,06,05,12.60
2018,08,09,06,06,12.60
2018,08,09,06,07,12.60
2018,08,09,06,08,12.60
2018,08,09,06,09,12.60
2018,08,09,06,10,12.60
2018,08,09,06,11,12.60
2018,08,09,06,12,12.60
2018,08,09,06,13,12.60
2018,08,09,06,14,12.70
2018,08,09,06,15,12.70
2018,08,09,06,16,12.70
2018,08,09,06,17,12.70
2018,08,09,06,18,12.70
2018,08,09,06,19,12.70
2018,08,09,06,20,12.70
2018,08,09,06,21,12.70
2018,08,09,06,22,12.60
2018,08,09,06,23,12.60
2018,08,09,06,24,12.60
2018,08,09,06,25,12.60
2018,08,09,06,26,12.60
2018,08,09,06,27,12.70
2018,08,09,06,28,12.70
2018,08,09,06,29,12.70
2018,08,09,06,30,12.70
2018,08,09,06,31,12.70
2018,08,09,06,32,12.70
2018,08,09,06,33,12.70
2018,08,09,06,34,12.70
2018,08,09,06,35,12.70
2018,08,09,06,36,12.70
2018,08,09,06,37,12.80
2018,08,09,06,38,12.80
2018,08,09,06,39,12.80
2018,08,09,06,40,12.80
2018,08,09,06,41,12.80
2018,08,09,06,42,12.80
2018,08,09,06,43,12.80
2018,08,09,06,44,12.80
2018,08,09,06,45,12.80
2018,08,09,06,46,12.80
2018,08,09,06,47,12.80
2018,08,09,06,48,12.80
2018,08,09,06,49,12.80
2018,08,09,06,50,12.80
2018,08,09,06,51,12.80
2018,08,09,06,52,12.80
2018,08,09,06,53,12.80
2018,08,09,06,54,12.90
2018,08,09,06,55,12.90
2018,08,09,06,56,12.90
2018,08,09,06,57,12.90
2018,08,09,06,58,12.90
2018,08,09,06,59,13.00
2018,08,09,07,00,13.00
2018,08,09,07,01,13.00
2018,08,09,07,02,13.10
2018,08,09,07,03,13.10
2018,08,09,07,04,13.20
2018,08,09,07,05,13.20
2018,08,09,07,06,13.20
2018,08,09,07,07,13.20
2018,08,09,07,08,13.10
2018,08,09,07,09,13.10
2018,08,09,07,10,13.10
2018,08,09,07,11,13.20
2018,08,09,07,12,13.20
2018,08,09,07,13,13.20
2018,08,09,07,14,13.20
2018,08,09,07,15,13.20
2018,08,09,07,16,13.20
2018,08,09,07,17,13.20
2018,08,09,07,18,13.20
2018,08,09,07,19,13.20
2018,08,09,07,20,13.30
2018,08,09,07,21,13.30
2018,08,09,07,22,13.30
2018,08,09,07,23,13.30
2018,08,09,07,24,13.30
2018,08,09,07,25,13.30
2018,08,09,07,26,13.30
2018,08,09,07,27,13.30
2018,08,09,07,28,13.30
2018,08,09,07,29,13.30
2018,08,09,07,30,13.30
2018,08,09,07,31,13.20
2018,08,09,07,32,13.20
2018,08,09,07,33,13.20
2018,08,09,07,34,13.20
2018,08,09,07,35,13.10
2018,08,09,07,36,13.10
2018,08,09,07,37,13.00
2018,08,09,07,38,13.00
2018,08,09,07,39,13.00
2018,08,09,07,40,12.90
2018,08,09,07,41,12.90
2018,08,09,07,42,12.90
2018,08,09,07,43,12.90
2018,08,09,07,44,12.90
2018,08,09,07,45,12.90
2018,08,09,07,46,12.90
2018,08,09,07,47,12.90
2018,08,09,07,48,12.90
2018,08,09,07,49,12.90
2018,08,09,07,50,12.90
2018,08,09,07,51,13.00
2018,08,09,07,52,13.00
2018,08,09,07,53,13.00
2018,08,09,07,54,13.10
2018,08,09,07,55,13.10
2018,08,09,07,56,13.10
2018,08,09,07,57,13.10
2018,08,09,07,58,13.10
2018,08,09,07,59,13.20
2018,08,09,08,00,13.20
2018,08,09,08,01,13.30
2018,08,09,08,02,13.30
2018,08,09,08,03,13.30
2018,08,09,08,04,13.30
2018,08,09,08,05,13.30
2018,08,09,08,06,13.30
2018,08,09,08,07,13.30
2018,08,09,08,08,13.30
2018,08,09,08,09,13.30
2018,08,09,08,10,13.30
2018,08,09,08,11,13.30
2018,08,09,08,12,13.30
2018,08,09,08,13,13.30
2018,08,09,08,14,13.30
2018,08,09,08,15,13.30
2018,08,09,08,16,13.30
2018,08,09,08,17,13.40
2018,08,09,08,18,13.40
2018,08,09,08,19,13.50
2018,08,09,08,20,13.50
2018,08,09,08,21,13.60
2018,08,09,08,22,13.60
2018,08,09,08,23,13.60
2018,08,09,08,24,13.60
2018,08,09,08,25,13.60
2018,08,09,08,26,13.60
2018,08,09,08,27,13.60
2018,08,09,08,28,13.60
2018,08,09,08,29,13.60
2018,08,09,08,30,13.60
2018,08,09,08,31,13.60
2018,08,09,08,32,13.50
2018,08,09,08,33,13.50
2018,08,09,08,34,13.60
2018,08,09,08,35,13.60
2018,08,09,08,36,13.70
2018,08,09,08,37,13.80
2018,08,09,08,38,13.90
2018,08,09,08,39,13.90
2018,08,09,08,40,14.00
2018,08,09,08,41,14.10
2018,08,09,08,42,14.10
2018,08,09,08,43,14.10
2018,08,09,08,44,14.20
2018,08,09,08,45,14.20
2018,08,09,08,46,14.20
2018,08,09,08,47,14.20
2018,08,09,08,48,14.10
2018,08,09,08,49,14.00
2018,08,09,08,50,14.00
2018,08,09,08,51,13.90
2018,08,09,08,52,13.80
2018,08,09,08,53,13.70
2018,08,09,08,54,13.70
2018,08,09,08,55,13.70
2018,08,09,08,56,13.70
2018,08,09,08,57,13.70
2018,08,09,08,58,13.70
2018,08,09,08,59,13.60
2018,08,09,09,00,13.70
2018,08,09,09,01,13.60
2018,08,09,09,02,13.60
2018,08,09,09,03,13.60
2018,08,09,09,04,13.50
2018,08,09,09,05,13.50
2018,08,09,09,06,13.50
2018,08,09,09,07,13.50
2018,08,09,09,08,13.40
2018,08,09,09,09,13.40
2018,08,09,09,10,13.30
2018,08,09,09,11,13.40
2018,08,09,09,12,13.40
2018,08,09,09,13,13.40
2018,08,09,09,14,13.40
2018,08,09,09,15,13.40
2018,08,09,09,16,13.40
2018,08,09,09,17,13.40
2018,08,09,09,18,13.40
2018,08,09,09,19,13.30
2018,08,09,09,20,13.40
2018,08,09,09,21,13.40
2018,08,09,09,22,13.40
2018,08,09,09,23,13.50
2018,08,09,09,24,13.50
2018,08,09,09,25,13.60
2018,08,09,09,26,13.70
2018,08,09,09,27,13.70
2018,08,09,09,28,13.70
2018,08,09,09,29,13.70
2018,08,09,09,30,13.60
2018,08,09,09,31,13.60
2018,08,09,09,32,13.60
2018,08,09,09,33,13.60
2018,08,09,09,34,13.60
2018,08,09,09,35,13.60
2018,08,09,09,36,13.60
2018,08,09,09,37,13.50
2018,08,09,09,38,13.50
2018,08,09,09,39,13.50
2018,08,09,09,40,13.50
2018,08,09,09,41,13.50
2018,08,09,09,42,13.60
2018,08,09,09,43,13.50
2018,08,09,09,44,13.50
2018,08,09,09,45,13.50
2018,08,09,09,46,13.40
2018,08,09,09,47,13.40
2018,08,09,09,48,13.40
2018,08,09,09,49,13.40
2018,08,09,09,50,13.30
2018,08,09,09,51,13.30
2018,08,09,09,52,13.30
2018,08,09,09,53,13.30
2018,08,09,09,54,13.30
2018,08,09,09,55,13.30
2018,08,09,09,56,13.30
2018,08,09,09,57,13.30
2018,08,09,09,58,13.30
2018,08,09,09,59,13.30
2018,08,09,10,00,13.30
2018,08,09,10,01,13.30
2018,08,09,10,02,13.20
2018,08,09,10,03,13.20
2018,08,09,10,04,13.20
2018,08,09,10,05,13.10
2018,08,09,10,06,13.10
2018,08,09,10,07,13.00
2018,08,09,10,08,13.00
2018,08,09,10,09,12.90
2018,08,09,10,10,12.90
2018,08,09,10,11,12.90
2018,08,09,10,12,12.90
2018,08,09,10,13,13.00
2018,08,09,10,14,13.00
2018,08,09,10,15,13.10
2018,08,09,10,16,13.20
2018,08,09,10,17,13.20
2018,08,09,10,18,13.30
2018,08,09,10,19,13.30
2018,08,09,10,20,13.30
2018,08,09,10,21,13.30
2018,08,09,10,22,13.40
2018,08,09,10,23,13.50
2018,08,09,10,24,13.60
2018,08,09,10,25,13.60
2018,08,09,10,26,13.50
2018,08,09,10,27,13.50
2018,08,09,10,28,13.50
2018,08,09,10,29,13.50
2018,08,09,10,30,13.40
2018,08,09,10,31,13.50
2018,08,09,10,32,13.40
2018,08,09,10,33,13.40
2018,08,09,10,34,13.40
2018,08,09,10,35,13.30
2018,08,09,10,36,13.30
2018,08,09,10,37,13.30
2018,08,09,10,38,13.30
2018,08,09,10,39,13.30
2018,08,09,10,40,13.40
2018,08,09,10,41,13.40
2018,08,09,10,42,13.40
2018,08,09,10,43,13.50
2018,08,09,10,44,13.50
2018,08,09,10,45,13.50
2018,08,09,10,46,13.50
2018,08,09,10,47,13.50
2018,08,09,10,48,13.50
2018,08,09,10,49,13.50
2018,08,09,10,50,13.40
2018,08,09,10,51,13.30
2018,08,09,10,52,13.30
2018,08,09,10,53,13.30
2018,08,09,10,54,13.30
2018,08,09,10,55,13.40
2018,08,09,10,56,13.40
2018,08,09,10,57,13.50
2018,08,09,10,58,13.50
2018,08,09,10,59,13.40
2018,08,09,11,00,13.40
2018,08,09,11,01,13.40
2018,08,09,11,02,13.40
2018,08,09,11,03,13.50
2018,08,09,11,04,13.50
2018,08,09,11,05,13.50
2018,08,09,11,06,13.60
2018,08,09,11,07,13.70
2018,08,09,11,08,13.70
2018,08,09,11,09,13.70
2018,08,09,11,10,13.70
2018,08,09,11,11,13.70
2018,08,09,11,12,13.70
2018,08,09,11,13,13.80
2018,08,09,11,14,13.90
2018,08,09,11,15,14.10
2018,08,09,11,16,14.20
2018,08,09,11,17,14.40
2018,08,09,11,18,14.50
2018,08,09,11,19,14.60
2018,08,09,11,20,14.80
2018,08,09,11,21,14.90
2018,08,09,11,22,14.80
2018,08,09,11,23,14.70
2018,08,09,11,24,14.60
2018,08,09,11,25,14.50
2018,08,09,11,26,14.40
2018,08,09,11,27,14.40
2018,08,09,11,28,14.40
2018,08,09,11,29,14.40
2018,08,09,11,30,14.40
2018,08,09,11,31,14.50
2018,08,09,11,32,14.60
2018,08,09,11,33,14.60
2018,08,09,11,34,14.70
2018,08,09,11,35,14.80
2018,08,09,11,36,14.80
2018,08,09,11,37,14.80
2018,08,09,11,38,14.90
2018,08,09,11,39,15.00
2018,08,09,11,40,15.00
2018,08,09,11,41,15.10
2018,08,09,11,42,15.10
2018,08,09,11,43,15.00
2018,08,09,11,44,15.10
2018,08,09,11,45,15.10
2018,08,09,11,46,15.20
2018,08,09,11,47,15.30
2018,08,09,11,48,15.30
2018,08,09,11,49,15.30
2018,08,09,11,50,15.40
2018,08,09,11,51,15.50
2018,08,09,11,52,15.60
2018,08,09,11,53,15.70
2018,08,09,11,54,15.80
2018,08,09,11,55,15.90
2018,08,09,11,56,16.10
2018,08,09,11,57,16.10
2018,08,09,11,58,16.10
2018,08,09,11,59,16.10
2018,08,09,12,00,16.00
2018,08,09,12,01,15.90
2018,08,09,12,02,16.00
2018,08,09,12,03,16.10
2018,08,09,12,04,16.20
2018,08,09,12,05,16.40
2018,08,09,12,06,16.50
2018,08,09,12,07,16.60
2018,08,09,12,08,16.50
2018,08,09,12,09,16.50
2018,08,09,12,10,16.60
2018,08,09,12,11,16.60
2018,08,09,12,12,16.50
2018,08,09,12,13,16.40
2018,08,09,12,14,16.40
2018,08,09,12,15,16.40
2018,08,09,12,16,16.30
2018,08,09,12,17,16.20
2018,08,09,12,18,16.00
2018,08,09,12,19,15.90
2018,08,09,12,20,15.70
2018,08,09,12,21,15.50
2018,08,09,12,22,15.40
2018,08,09,12,23,15.30
2018,08,09,12,24,15.30
2018,08,09,12,25,15.20
2018,08,09,12,26,15.10
2018,08,09,12,27,15.10
2018,08,09,12,28,15.10
2018,08,09,12,29,15.00
2018,08,09,12,30,15.10
2018,08,09,12,31,15.10
2018,08,09,12,32,15.10
2018,08,09,12,33,15.00
2018,08,09,12,34,15.00
2018,08,09,12,35,15.00
2018,08,09,12,36,15.00
2018,08,09,12,37,15.00
2018,08,09,12,38,15.00
2018,08,09,12,39,15.00
2018,08,09,12,40,15.10
2018,08,09,12,41,15.20
2018,08,09,12,42,15.20
2018,08,09,12,43,15.20
2018,08,09,12,44,15.10
2018,08,09,12,45,15.10
2018,08,09,12,46,15.00
2018,08,09,12,47,15.00
2018,08,09,12,48,15.00
2018,08,09,12,49,15.00
2018,08,09,12,50,15.00
2018,08,09,12,51,15.10
2018,08,09,12,52,15.10
2018,08,09,12,53,15.10
2018,08,09,12,54,15.20
2018,08,09,12,55,15.20
2018,08,09,12,56,15.10
2018,08,09,12,57,15.10
2018,08,09,12,58,15.20
2018,08,09,12,59,15.20
2018,08,09,13,00,15.30
2018,08,09,13,01,15.40
2018,08,09,13,02,15.50
2018,08,09,13,03,15.60
2018,08,09,13,04,15.70
2018,08,09,13,05,15.90
2018,08,09,13,06,16.10
2018,08,09,13,07,16.20
2018,08,09,13,08,16.40
2018,08,09,13,09,16.40
2018,08,09,13,10,16.60
2018,08,09,13,11,16.60
2018,08,09,13,12,16.70
2018,08,09,13,13,16.70
2018,08,09,13,14,16.70
2018,08,09,13,15,16.70
2018,08,09,13,16,16.70
2018,08,09,13,17,16.60
2018,08,09,13,18,16.50
2018,08,09,13,19,16.40
2018,08,09,13,20,16.40
2018,08,09,13,21,16.50
2018,08,09,13,22,16.60
2018,08,09,13,23,16.60
2018,08,09,13,24,16.60
2018,08,09,13,25,16.60
2018,08,09,13,26,16.60
2018,08,09,13,27,16.70
2018,08,09,13,28,16.70
2018,08,09,13,29,16.80
2018,08,09,13,30,17.00
2018,08,09,13,31,17.00
2018,08,09,13,32,16.90
2018,08,09,13,33,16.80
2018,08,09,13,34,16.80
2018,08,09,13,35,16.80
2018,08,09,13,36,16.70
2018,08,09,13,37,16.60
2018,08,09,13,38,16.40
2018,08,09,13,39,16.20
2018,08,09,13,40,16.20
2018,08,09,13,41,16.10
2018,08,09,13,42,16.00
2018,08,09,13,43,15.80
2018,08,09,13,44,15.70
2018,08,09,13,45,15.60
2018,08,09,13,46,15.50
2018,08,09,13,47,15.30
2018,08,09,13,48,15.30
2018,08,09,13,49,15.20
2018,08,09,13,50,15.20
2018,08,09,13,51,15.20
2018,08,09,13,52,15.10
2018,08,09,13,53,15.20
2018,08,09,13,54,15.20
2018,08,09,13,55,15.20
2018,08,09,13,56,15.20
2018,08,09,13,57,15.20
2018,08,09,13,58,15.10
2018,08,09,13,59,15.10
2018,08,09,14,00,15.10
2018,08,09,14,01,15.20
2018,08,09,14,02,15.20
2018,08,09,14,03,15.10
2018,08,09,14,04,15.10
2018,08,09,14,05,15.10
2018,08,09,14,06,15.10
2018,08,09,14,07,15.20
2018,08,09,14,08,15.40
2018,08,09,14,09,15.50
2018,08,09,14,10,15.50
2018,08,09,14,11,15.50
2018,08,09,14,12,15.50
2018,08,09,14,13,15.60
2018,08,09,14,14,15.70
2018,08,09,14,15,15.60
2018,08,09,14,16,15.60
2018,08,09,14,17,15.60
2018,08,09,14,18,15.60
2018,08,09,14,19,15.50
2018,08,09,14,20,15.60
2018,08,09,14,21,15.70
2018,08,09,14,22,15.80
2018,08,09,14,23,15.80
2018,08,09,14,24,15.90
2018,08,09,14,25,15.90
2018,08,09,14,26,15.90
2018,08,09,14,27,15.90
2018,08,09,14,28,15.90
2018,08,09,14,29,15.90
2018,08,09,14,30,16.00
2018,08,09,14,31,16.10
2018,08,09,14,32,16.10
2018,08,09,14,33,16.10
2018,08,09,14,34,16.10
2018,08,09,14,35,16.10
2018,08,09,14,36,16.10
2018,08,09,14,37,16.20
2018,08,09,14,38,16.30
2018,08,09,14,39,16.40
2018,08,09,14,40,16.40
2018,08,09,14,41,16.50
2018,08,09,14,42,16.60
2018,08,09,14,43,16.70
2018,08,09,14,44,16.70
2018,08,09,14,45,16.90
2018,08,09,14,46,16.90
2018,08,09,14,47,17.00
2018,08,09,14,48,17.10
2018,08,09,14,49,17.20
2018,08,09,14,50,17.30
2018,08,09,14,51,17.40
2018,08,09,14,52,17.50
2018,08,09,14,53,17.70
2018,08,09,14,54,17.90
2018,08,09,14,55,18.10
2018,08,09,14,56,18.20
2018,08,09,14,57,18.20
2018,08,09,14,58,18.20
2018,08,09,14,59,18.30
2018,08,09,15,00,18.30
2018,08,09,15,01,18.40
2018,08,09,15,02,18.50
2018,08,09,15,03,18.50
2018,08,09,15,04,18.60
2018,08,09,15,05,18.70
2018,08,09,15,06,18.80
2018,08,09,15,07,18.90
2018,08,09,15,08,19.10
2018,08,09,15,09,19.10
2018,08,09,15,10,19.10
2018,08,09,15,11,19.30
2018,08,09,15,12,19.40
2018,08,09,15,13,19.50
2018,08,09,15,14,19.60
2018,08,09,15,15,19.70
2018,08,09,15,16,19.90
2018,08,09,15,17,20.00
2018,08,09,15,18,20.10
2018,08,09,15,19,20.20
2018,08,09,15,20,20.20
2018,08,09,15,21,20.20
2018,08,09,15,22,20.20
2018,08,09,15,23,20.20
2018,08,09,15,24,20.20
2018,08,09,15,25,20.20
2018,08,09,15,26,20.20
2018,08,09,15,27,20.20
2018,08,09,15,28,20.30
2018,08,09,15,29,20.40
2018,08,09,15,30,20.50
2018,08,09,15,31,20.50
2018,08,09,15,32,20.50
2018,08,09,15,33,20.60
2018,08,09,15,34,20.60
2018,08,09,15,35,20.70
2018,08,09,15,36,20.70
2018,08,09,15,37,20.80
2018,08,09,15,38,20.90
2018,08,09,15,39,21.00
2018,08,09,15,40,21.10
2018,08,09,15,41,21.10
2018,08,09,15,42,21.10
2018,08,09,15,43,21.20
2018,08,09,15,44,21.10
2018,08,09,15,45,21.10
2018,08,09,15,46,21.10
2018,08,09,15,47,21.20
2018,08,09,15,48,21.20
2018,08,09,15,49,21.30
2018,08,09,15,50,21.30
2018,08,09,15,51,21.30
2018,08,09,15,52,21.20
2018,08,09,15,53,21.20
2018,08,09,15,54,21.10
2018,08,09,15,55,21.20
2018,08,09,15,56,21.20
2018,08,09,15,57,21.30
2018,08,09,15,58,21.30
2018,08,09,15,59,21.30
2018,08,09,16,00,21.20
2018,08,09,16,01,21.10
2018,08,09,16,02,21.00
2018,08,09,16,03,21.00
2018,08,09,16,04,21.10
2018,08,09,16,05,21.10
2018,08,09,16,06,21.10
2018,08,09,16,07,21.00
2018,08,09,16,08,20.80
2018,08,09,16,09,20.70
2018,08,09,16,10,20.50
2018,08,09,16,11,20.30
2018,08,09,16,12,20.20
2018,08,09,16,13,20.20
2018,08,09,16,14,20.20
2018,08,09,16,15,20.20
2018,08,09,16,16,20.20
2018,08,09,16,17,20.20
2018,08,09,16,18,20.20
2018,08,09,16,19,20.20
2018,08,09,16,20,20.20
2018,08,09,16,21,20.20
2018,08,09,16,22,20.20
2018,08,09,16,23,20.20
2018,08,09,16,24,20.20
2018,08,09,16,25,20.10
2018,08,09,16,26,20.10
2018,08,09,16,27,20.00
2018,08,09,16,28,19.90
2018,08,09,16,29,19.70
2018,08,09,16,30,19.60
2018,08,09,16,31,19.50
2018,08,09,16,32,19.50
2018,08,09,16,33,19.50
2018,08,09,16,34,19.50
2018,08,09,16,35,19.50
2018,08,09,16,36,19.50
2018,08,09,16,37,19.40
2018,08,09,16,38,19.30
2018,08,09,16,39,19.20
2018,08,09,16,40,19.20
2018,08,09,16,41,19.20
2018,08,09,16,42,19.30
2018,08,09,16,43,19.30
2018,08,09,16,44,19.30
2018,08,09,16,45,19.40
2018,08,09,16,46,19.40
2018,08,09,16,47,19.30
2018,08,09,16,48,19.30
2018,08,09,16,49,19.30
2018,08,09,16,50,19.30
2018,08,09,16,51,19.10
2018,08,09,16,52,19.10
2018,08,09,16,53,19.10
2018,08,09,16,54,19.20
2018,08,09,16,55,19.30
2018,08,09,16,56,19.40
2018,08,09,16,57,19.50
2018,08,09,16,58,19.60
2018,08,09,16,59,19.80
2018,08,09,17,00,19.90
2018,08,09,17,01,20.00
2018,08,09,17,02,20.20
2018,08,09,17,03,20.20
2018,08,09,17,04,20.30
2018,08,09,17,05,20.30
2018,08,09,17,06,20.20
2018,08,09,17,07,20.10
2018,08,09,17,08,20.00
2018,08,09,17,09,19.90
2018,08,09,17,10,19.90
2018,08,09,17,11,19.80
2018,08,09,17,12,19.80
2018,08,09,17,13,19.80
2018,08,09,17,14,19.80
2018,08,09,17,15,19.90
2018,08,09,17,16,20.00
2018,08,09,17,17,20.10
2018,08,09,17,18,20.20
2018,08,09,17,19,20.20